Location: Alpha Ridge Park
(39.3209°N, 76.9128°W)
Time: 13:38:02
(UTC-04:00)

S-56A Canister/Altair - Pass Details

Date: 21 May 2019
Orbit: 633 x 2499 km, 38.9° (Epoch: 25 June)

Event Time Altitude Azimuth Distance (km) Brightness Sun altitude
Rises 05:15:11 0° 267° (W) 3,985 - -6.6°
Exits shadow 05:15:42 - 268° (W) 3,817 10.6 -6.5°
Reaches altitude 10° 05:17:32 10° 268° (W) 3,226 10.2 -6.2°
Maximum altitude 05:25:54 88° 181° (S) 1,674 9.3 -4.8°
Drops below altitude 10° 05:38:44 10° 92° (E) 4,753 12.7 -2.7°
Sets 05:42:56 0° 93° (E) 5,942 13.2 -1.9°
